Date,TemperatureHighF,TemperatureAvgF,TemperatureLowF,DewpointHighF,DewpointAvgF,DewpointLowF,HumidityHigh,HumidityAvg,HumidityLow,PressureMaxIn,PressureMinIn,WindSpeedMaxMPH,WindSpeedAvgMPH,GustSpeedMaxMPH,PrecipitationSumIn
2013-2-1,45.0,37.2,26.1,29.6,9.9,-10.3,65,36,12,30.38,29.91,20,4,20,0.00
2013-2-2,48.2,34.9,18.3,38.4,10.9,-1.9,88,41,15,30.40,30.04,17,3,17,0.04
2013-2-3,53.8,43.0,32.0,40.1,31.2,22.1,92,66,32,30.04,29.85,11,2,11,0.08
2013-2-4,52.2,38.5,25.0,30.0,22.6,15.0,86,56,24,30.15,29.99,7,1,7,0.00
2013-2-5,66.2,47.4,33.1,38.4,32.9,24.7,87,61,27,30.02,29.87,12,2,12,0.00
2013-2-6,68.9,49.4,32.5,41.6,27.8,11.8,96,52,13,30.28,29.97,14,2,14,0.00
2013-2-7,50.4,43.9,37.8,44.7,40.3,35.8,98,88,70,30.31,29.94,17,7,17,0.24
2013-2-8,57.9,46.9,41.0,47.8,42.2,29.3,99,85,58,30.06,29.78,19,6,19,0.32
2013-2-9,57.9,42.1,29.3,30.6,22.7,6.9,80,52,14,30.35,30.05,14,3,14,0.00
2013-2-10,56.5,42.2,27.0,42.4,22.8,10.8,87,50,18,30.49,30.20,12,3,12,0.04
2013-2-11,63.7,56.9,46.0,61.6,54.7,42.4,99,93,82,30.21,29.93,14,4,14,0.05
2013-2-12,66.7,55.4,47.8,54.5,38.0,20.3,99,59,19,30.09,29.91,10,2,10,0.00
2013-2-13,49.3,46.8,44.8,48.5,45.4,38.7,99,95,68,29.96,29.61,10,2,10,0.12
2013-2-14,53.6,42.2,33.1,39.7,34.4,31.2,99,76,44,30.07,29.83,7,1,7,0.00
2013-2-15,67.5,46.3,30.7,42.6,33.3,25.3,99,68,24,30.09,29.92,9,1,9,0.00
2013-2-16,46.9,37.7,31.5,37.9,33.7,25.7,99,87,67,29.96,29.81,11,3,11,0.24
2013-2-17,42.6,31.7,22.1,25.7,11.8,-3.0,79,48,18,30.27,29.91,16,2,16,0.09
2013-2-18,54.5,36.8,18.0,29.0,15.4,5.9,87,49,15,30.41,30.26,11,2,11,0.01
2013-2-19,47.7,37.6,33.3,44.6,30.7,23.4,94,76,61,30.26,30.03,11,2,11,0.04
2013-2-20,58.5,48.0,35.8,26.4,16.0,5.6,57,30,14,29.95,29.84,9,3,9,0.01
2013-2-21,61.3,44.1,25.0,30.1,16.0,7.2,76,36,14,30.08,29.93,14,3,14,0.00
2013-2-22,43.9,36.8,33.3,37.0,33.2,22.0,97,88,42,30.17,29.95,11,4,11,0.48
2013-2-23,45.0,40.7,36.7,44.0,40.3,35.4,99,98,97,29.95,29.65,10,2,10,0.46
2013-2-24,67.5,51.4,42.4,51.9,40.0,27.0,99,71,26,29.86,29.63,10,2,10,0.02
2013-2-25,45.3,39.6,34.3,30.6,25.1,20.2,69,56,44,30.06,29.86,17,6,17,0.00
2013-2-26,60.3,47.1,36.5,60.0,44.6,26.6,99,91,66,29.96,29.39,20,6,20,0.66
2013-2-27,63.0,50.1,39.2,48.1,42.0,37.9,99,77,42,29.63,29.47,11,3,11,0.01
2013-2-28,52.0,43.5,34.5,41.9,32.8,24.6,99,68,36,29.69,29.54,9,2,9,0.00